To NAV CANADA Home Page Login to a new session Search on AWWS site Feedback and Comments Disclaimer Vers la page française équivalente Tips FAQ What's new on the site To the Forecasts and Observations / NOTAM section To "File a Flight Plan" website Publications and other links Update of the User's profile FIC Telephone Numbers My Weather Data Folder Route Weather Data Regional Weather Data Local Weather Data To the Forecasts and Observations / NOTAM section
Request Generated 05/06/2015 at 08:26:38 UTC . Weather information available at that time is displayed.

METAR/TAF

KINGSTON/ON    

LWIS CYGK 060800Z AUTO 35003KT 07/03 A3028=
LWIS CYGK 060700Z AUTO 33003KT 09/03 A3028=
LWIS CYGK 060600Z AUTO 31003KT 10/03 A3029=

*** REMARK        : Forecast period has ended; this was the last TAF issued
*** REMARQUE : La période de prévision est échue; ceci était le dernier TAF qui a été émis
TAF CYGK 051938Z 0520/0603 20008KT P6SM BKN220
RMK NXT FCST WILL BE ISSUED AT 061145Z=
Your time UTC time
Weather data provided by Environment Canada and NAV CANADA